sat.trackr.live / text

‹ back to catalog

STARLINK-31575

NORAD 59471 · 2024-068S

PAYLOAD ACTIVE UNKNOWN

§ Identity

Operator
Country
US
Launch date
2024-04-10
Launch site
AFETR
Launch vehicle
Mass (kg)
RCS (m²)

Purposes: comms

External: N2YO · Heavens-Above · Gunter

§ Orbital elements

Epoch: 2026-09-21T14:08:51.378720Z

Period
94.27 min
Inclination
43.0045°
Eccentricity
0.0001248
Mean motion
15.27581656 rev/d
Perigee alt
482.2 km
Apogee alt
483.9 km
Semi-major
6,861.2 km
B*
2.3327e-5
RAAN
4.6699°
Arg perigee
284.0439°
Mean anomaly
76.0274°
Rev number
13,852

§ Raw data

STARLINK-315751 59471U 24068S   26264.58948355  .00000380  00000+0  23327-4 0  99942 59471  43.0045   4.6699 0001248 284.0439  76.0274 15.27581656138524

JSON: /api/v1/satellites/59471 · /tle

For live sub-satellite position, see the globe view (requires WebGL).

§ Visibility from observer

Set your observer location to see the next 7 days of passes ≥ 10°. The values pass through the URL so the page stays shareable.

No JS? Fill the form by hand. The geolocation button needs JavaScript.